Regional Weather Roundup
Issued by NWS

Home | Current Version | Previous Version | Text Only | Print | Product List | Glossary Off
Versions: 1 2 3 4 5 6 7 8 9 10 11 12 13 14 15 16 17 18 19 20 21 22 23 24 25 26 27 28 29 30 31 32 33 34 35 36 37 38 39 40 41 42 43 44 45 46 47 48 49 50

000
ASUS43 KMPX 250310
RWRMN
WEATHER ROUNDUP FOR MINNESOTA
NATIONAL WEATHER SERVICE TWIN CITIES/CHANHASSEN MN
1000 PM CDT TUE APR 24 2018


NOTE: "FAIR" INDICATES FEW OR NO CLOUDS BELOW 12,000 FEET WITH NO
SIGNIFICANT WEATHER AND/OR OBSTRUCTIONS TO VISIBILITY. N/A MEANS
CURRENT SKY AND/OR WEATHER CONDITIONS ARE NOT AVAILABLE.

MNZ060>063-068>070-250400-
   Twin Cities Metro

CITY           SKY/WX    TMP DP  RH WIND       PRES   REMARKS
TWIN CITIES    FAIR      50  28  42 N7        30.22R
ST PAUL        FAIR      49  29  46 NW8       30.22R
CRYSTAL        FAIR      48  23  37 N7        30.22R
BLAINE         FAIR      48  27  43 N8        30.22R
LAKEVILLE      FAIR      45  30  57 CALM      30.21S
EDEN PRAIRIE   FAIR      49  28  44 N7        30.21R
SOUTH ST PAUL  FAIR      50  29  44 N6        30.21R
LAKE ELMO      FAIR      46  32  57 NW6       30.22R
$$
MNZ001>005-007-008-013>017-022>024-027-028-250400-
   Northwest Minnesota

CITY           SKY/WX    TMP DP  RH WIND       PRES   REMARKS
BEMIDJI        FAIR      35  21  57 CALM      30.32R
HALLOCK        FAIR      39  23  52 SE3       30.32S
ROSEAU         FAIR      37  30  75 S3        30.32R
WARROAD        FAIR      34  27  75 CALM      30.33R
THIEF RVR FALL FAIR      40  27  59 NW5       30.34R
CROOKSTON      FAIR      45  27  49 CALM      30.34S
FOSSTON        FAIR      34  23  64 CALM      30.33S
DETROIT LAKES  FAIR      39  28  65 N9        30.33R
MOORHEAD       FAIR      39  30  70 N8        30.35S
PARK RAPIDS    FAIR      41  23  48 N9        30.30R
MAHNOMEN       FAIR      38  27  64 N7        30.33R
$$
MNZ006-009>011-018-025>026-250400-
   North Central Minnesota

CITY           SKY/WX    TMP DP  RH WIND       PRES   REMARKS
BAUDETTE       FAIR      34  25  69 CALM      30.31S
FLAG ISLAND    FAIR      34  21  60 CALM      30.30S
INTL FALLS     FAIR      29  22  75 CALM      30.30R
WASKISH        FAIR      32  25  74 CALM      30.32S
BIG FORK       FAIR      30  21  69 CALM      30.30R
LONGVILLE      FAIR      36  25  64 CALM      30.30R
GRAND RAPIDS   FAIR      39  23  52 N6        30.31R
CRANE LAKE     FAIR      27  23  86 CALM      30.31S
ORR            FAIR      28  19  69 CALM      30.28R
COOK           FAIR      30  21  69 CALM      30.29S
WALKER         FAIR      36  22  56 N6        30.32R
$$
MNZ012-019>021-037-250400-
   Northeast Minnesota

CITY           SKY/WX    TMP DP  RH WIND       PRES   REMARKS
DULUTH         FAIR      38  24  57 N9        30.25R
ELY            FAIR      34  19  55 NW3       30.27R
HIBBING        FAIR      34  21  59 N7        30.28R WCI  28
EVELETH        FAIR      35  22  59 N5        30.29R WCI  31
DULUTH HARBOR  FAIR      41  28  60 N12       30.27R
TWO HARBORS    FAIR      41  27  56 N6        30.24R
SILVER BAY     FAIR      37  23  56 N3        30.24R
GRAND MARAIS     N/A     40  25  55 E10       30.24R
G MARAIS ARPRT FAIR      32  19  59 NW12G18   30.22F WCI  23
$$
MNZ029>031-032-039>041-046>048-054>057-064-250400-
   West Central Minnesota

CITY           SKY/WX    TMP DP  RH WIND       PRES   REMARKS
FERGUS FALLS   FAIR      39  28  65 N7        30.31R
WHEATON        CLEAR     41  32  70 NW7       30.35R
MORRIS         CLEAR     43  34  70 NW9       30.30R
ALEXANDRIA     FAIR      45  27  49 NW8       30.29R
ELBOW LAKE     FAIR      39  30  70 N7        30.32R
WADENA         FAIR      41  27  56 N9        30.30R
GLENWOOD       FAIR      43  30  61 NW10      30.28R
APPLETON       CLEAR     45  32  61 NW9       30.30R
BENSON         CLEAR     37  30  75 N9        30.30S
ORTONVILLE     CLEAR     43  32  65 N9        30.32R
WILLMAR        FAIR      43  32  65 NW10      30.29R
$$
MNZ033>034-036-042>043-049>051-058-059-250400-
   Central Minnesota

CITY           SKY/WX    TMP DP  RH WIND       PRES   REMARKS
ST CLOUD       FAIR      43  30  60 N8        30.24R
SAUK CENTRE    FAIR      43  29  57 NW9       30.27R
PAYNESVILLE    FAIR      42  35  74 NW6       30.26R
AITKIN         FAIR      37  25  60 N8        30.26R
PINE RIVER     FAIR      37  23  56 N8        30.32R
BRAINERD       FAIR      42  25  50 N10       30.28R
STAPLES        FAIR      43  21  42 N12       30.30R
LONG PRAIRIE   FAIR      43  28  56 W7        30.28R
LITTLE FALLS   FAIR      45  18  33 N5        30.27R
LITCHFIELD     FAIR      46  34  61 NW8       30.25R
BUFFALO        FAIR      46  27  47 N3        30.24R
MAPLE LAKE     FAIR      44  32  63 N3        30.25R
HUTCHINSON     FAIR      43  33  68 NW8       30.25R
$$
MNZ037-044-045-052-053-250400-
   East Central Minnesota

CITY           SKY/WX    TMP DP  RH WIND       PRES   REMARKS
PRINCETON      FAIR      45  25  45 NW6       30.25R
MORA           FAIR      41  27  56 N3        30.26R
CAMBRIDGE      FAIR      48  30  49 NW3       30.23R
RUSH CITY      FAIR      45  27  49 N6        30.23R
MOOSE LAKE     FAIR      43  25  49 NE13      30.24R
HINCKLEY       FAIR      45  28  53 N6        30.24R
CLOQUET        FAIR      41  21  45 N9G17     30.25R
MCGREGOR       FAIR      41  28  60 N8        30.27R
$$
MNZ071>073-080-081-089-090-097-098-250400-
   Southwest Minnesota

CITY           SKY/WX    TMP DP  RH WIND       PRES   REMARKS
MONTEVIDEO     CLEAR     43  34  70 N9        30.29R
GRANITE FALLS  CLEAR     46  36  69 NW12      30.30R
CANBY          CLEAR     44  33  66 NW9       30.31R
MARSHALL       CLEAR     42  35  76 NW12      30.29R
REDWOOD FALLS  CLEAR     45  35  68 NW8       30.26R
OLIVIA         CLEAR     43  32  65 NW7       30.26R
PIPESTONE      CLEAR    N/A N/A N/A N10       30.28R
WINDOM         CLEAR     39  27  60 NW10      30.25R
WORTHINGTON    MOCLDY    41  38  89 N13       30.26R
JACKSON        PTCLDY    41  37  87 NW8       30.25R
TRACY          CLEAR     44  37  78 N12       30.27R
SLAYTON        PTCLDY    41  35  78 NW13      30.27R
$$
MNZ065>067-074>077-082>085-091>093-250400-
   South Central Minnesota

CITY           SKY/WX    TMP DP  RH WIND       PRES   REMARKS
MANKATO        FAIR      47  36  65 NW6       30.23R
NEW ULM        CLEAR     43  36  75 W7        30.24R
ST JAMES       CLEAR     43  39  87 NW9       30.25R
FAIRMONT       CLOUDY    45  41  86 N9        30.24R
GLENCOE        FAIR      46  37  72 NW5       30.22S
OWATONNA       FAIR      45  37  76 N3        30.22R
WASECA         FAIR      41  37  87 N6        30.23R
ALBERT LEA     MOCLDY    48  39  71 N8        30.20R
$$
MNZ078>079-086>088-094>096-250400-
   Southeast Minnesota

CITY           SKY/WX    TMP DP  RH WIND       PRES   REMARKS
ROCHESTER      FAIR      47  38  71 N12       30.19R
RED WING       FAIR      43  32  65 CALM      30.19S
STANTON        FAIR      46  35  65 N8        30.20R
DODGE CENTER   FAIR      46  37  71 N8        30.20R
WINONA         MOCLDY    54  37  54 N5        30.17R
AUSTIN         FAIR      48  37  66 N7        30.19R
PRESTON        FAIR      48  36  61 N13G21    30.17R
$$
ABBREVIATIONS USED IN REMARKS
   TC - TEMPERATURES IN CELSIUS
  WCI - WIND CHILL INDEX
   HX - HEAT INDEX
  VSB - VISIBILITY
$$




USA.gov is the U.S. government's official web portal to all federal, state and local government web resources and services.